Weather Roundup
Issued by NWS Corpus Christi, TX

Home | Current Version | Previous Version | Text Only | Print | Product List | Glossary On
Versions: 1 2 3 4 5 6 7 8 9 10 11 12 13 14 15 16 17 18 19 20 21 22 23 24 25 26 27 28 29 30 31 32 33 34 35 36 37 38 39 40 41 42 43 44 45 46 47 48 49 50
000
ASUS44 KCRP 201210
HRRCRP

SOUTH TEXAS REGIONAL WEATHER ROUNDUP
NATIONAL WEATHER SERVICE CORPUS CHRISTI TX
700 AM CDT SAT JUL 20 2019


TXZ229>244-201300-
...CORPUS CHRISTI AREA OBSERVATIONS...

CITY           SKY/WX    TMP DP  RH WIND       PRES   REMARKS
CORPUS CHRISTI PTCLDY    77  75  93 S7        29.94S
NAS CORPUS CHR PTCLDY    82  78  88 S12       29.94R HX  91
ROCKPORT       CLEAR     81  74  79 S7        29.95R
KINGSVILLE NAS CLEAR     76  73  91 SE6       29.93R
ALICE          MOCLDY    75  73  93 SE5       29.93R
$$

...VICTORIA AREA OBSERVATIONS...

CITY           SKY/WX    TMP DP  RH WIND       PRES   REMARKS
PORT LAVACA    CLEAR     78  75  92 SE3       29.97R
VICTORIA       CLEAR     74  72  93 SE3       29.97R
BEEVILLE       NOT AVBL
PLEASANTON     MOCLDY    74  73  94 SE3       29.96R
SAN ANTONIO    MOCLDY    77  72  84 S13       29.97S
$$

...LAREDO AREA OBSERVATIONS...

CITY           SKY/WX    TMP DP  RH WIND       PRES   REMARKS
LAREDO         CLEAR     78  72  81 SE9       29.90R
COTULLA        CLEAR     76  73  91 E8        29.93R
DEL RIO        CLEAR     77  70  79 E13G22    29.89S
MCALLEN        CLEAR     78  75  90 SE8       29.92S
HEBBRONVILLE   CLOUDY    74  73  95 CALM      29.93S FOG
$$

...OTHER TEXAS OBSERVATIONS...

CITY           SKY/WX    TMP DP  RH WIND       PRES   REMARKS
BROWNSVILLE    FAIR      80  79  96 SE5       29.93R
HOUSTON        PTCLDY    77  74  90 CALM      29.99R
COL. STATION   MOCLDY    77  76  96 SE3       29.99R
AUSTIN         MOCLDY    76  74  93 S5        29.97R
TEMPLE         CLEAR     75  75 100 S10       29.97R
WACO           PTCLDY    78  74  87 S9        29.96R
FORT WORTH     PTCLDY    78  72  81 S10       29.93R
WICHITA FALLS  CLEAR     76  71  85 S10       29.89R
LUBBOCK        CLEAR     75  59  57 S13       29.96R
EL PASO        PTCLDY    81  57  43 SW12      29.99R
$$

...MARINE OBSERVATIONS...

STATION/POSITION TIME  SKY/WX   TEMP    WIND        PRES    VSBY  WAVE   SWELL
                                AIR SEA DIR/SP/G                  HT/PER HT/PER
                 (UTC)          (F)     (DEG/KT/KT) (MB)    (MI)  (FT/S) (FT/S)
PORT ARANSAS     1200            83 85  160/ 14/ 16 1014.0R
BUOY 90 E PORT A NOT AVBL
BUOY 45 SE BAFFI 1150            84 84  160/ 14/ 16 1013.8R         4/ 6
BUOY 200 E PT IS 1150            84 86  120/  6/  8 1015.3R         2/ 5   2/ 5
BUOY 15 E GALVES 1150            86     160/ 10/ 14 1016.3R         3/ 5   2/ 5
$$




USA.gov is the U.S. government's official web portal to all federal, state and local government web resources and services.